Location: Astronomy Club of Akron Observatory
(40.9700°N, 81.5606°W)
Time: 19:33:36
(UTC-04:00)

ATLAS 2AS CENTAUR R/B - Visible Passes

Search period start: 25 October 2014 00:00
Search period end: 03 November 2014 23:00
Orbit: 917 x 1296 km, 63.7° (Epoch: 19 October)

Date Brightness Start Highest point End Pass type
(mag) Time Alt. Az. Time Alt. Az. Time Alt. Az.
25 Oct 5.2 03:53:53 13° N 03:55:19 13° N 03:58:49 10° NNE visible
25 Oct 4.9 05:43:33 10° NNW 05:49:44 23° NNE 05:55:54 10° E visible
26 Oct 5.3 03:10:41 13° N 03:10:41 13° N 03:13:02 10° NNE visible
26 Oct 5.1 04:58:53 10° NNW 05:04:11 19° NNE 05:09:30 10° ENE visible
26 Oct 3.9 06:49:28 10° NNW 06:57:18 50° NE 07:04:57 10° ESE visible
27 Oct 5.5 02:27:33 11° NNE 02:27:33 11° NNE 02:27:49 10° NNE visible
27 Oct 5.2 04:15:00 12° NNW 04:18:30 15° NNE 04:22:56 10° NE visible
27 Oct 4.4 06:04:50 10° NNW 06:12:11 36° NE 06:19:24 10° ESE visible
28 Oct 5.2 03:31:54 13° N 03:32:42 14° N 03:36:27 10° NE visible
28 Oct 4.7 05:20:13 10° NNW 05:26:53 27° NE 05:33:29 10° E visible
28 Oct 3.2 07:10:54 10° NW 07:19:03 87° ENE 07:26:55 10° SSE visible
29 Oct 5.4 02:48:52 12° NNE 02:48:52 12° NNE 02:50:19 10° NNE visible
29 Oct 5.0 04:36:20 12° NNW 04:41:26 21° NNE 04:47:15 10° ENE visible
29 Oct 3.5 06:26:09 10° NNW 06:34:11 62° NE 06:41:59 10° SE visible
30 Oct 5.1 03:53:23 15° N 03:55:49 17° NNE 04:00:46 10° ENE visible
30 Oct 4.0 05:41:30 10° NNW 05:49:10 44° NE 05:56:40 10° ESE visible
30 Oct 5.0 21:23:36 10° SSW 21:23:38 10° SSW 21:23:38 10° SSW visible
31 Oct 5.3 03:10:31 14° NNE 03:10:31 14° NNE 03:14:13 10° NE visible
31 Oct 4.5 04:58:00 14° NNW 05:03:58 32° NE 05:10:58 10° E visible
31 Oct 3.1 06:47:41 10° NW 06:55:47 76° WSW 07:03:34 10° SSE visible
31 Oct 4.3 20:39:46 10° S 20:41:43 19° SSE 20:41:43 19° SSE visible
01 Nov 5.6 02:27:47 10° NNE 02:27:47 10° NNE 02:27:49 10° NNE visible
01 Nov 4.8 04:15:16 19° N 04:18:37 25° NNE 04:24:55 10° E visible
01 Nov 3.2 06:02:53 10° NNW 06:11:01 76° NE 06:18:53 10° SE visible
01 Nov 4.1 19:56:39 10° SSE 19:59:48 19° SE 19:59:48 19° SE visible
01 Nov 4.3 21:44:38 10° SW 21:47:21 26° SW 21:47:21 26° SW visible
02 Nov 5.0 02:32:40 19° NNE 02:33:06 19° NNE 02:38:35 10° ENE visible
02 Nov 3.7 04:20:10 19° NNW 04:26:06 54° NE 04:33:47 10° SE visible
02 Nov 3.5 06:09:38 10° NW 06:16:57 39° WSW 06:24:00 10° S visible
02 Nov 4.4 18:15:06 10° ESE 18:17:34 12° E 18:17:52 12° E visible
02 Nov 3.1 20:00:02 10° SSW 20:05:24 55° S 20:05:24 55° S visible
02 Nov 5.2 21:52:18 10° W 21:52:57 13° W 21:52:57 13° W visible
03 Nov 5.4 01:50:12 14° NE 01:50:12 14° NE 01:52:02 10° NE visible
03 Nov 4.1 03:37:43 28° N 03:41:00 39° NE 03:48:19 10° ESE visible
03 Nov 3.1 05:25:14 13° NW 05:32:27 60° WSW 05:40:03 10° SSE visible
03 Nov 3.1 19:15:54 10° S 19:22:30 46° ESE 19:23:23 44° E visible
03 Nov 4.2 21:06:42 10° WSW 21:10:55 33° W 21:10:55 33° W visible
